This is the latest recevied weather packets stored in our database for station/object JQ1YUX-13. If no packets are shown the sender has not sent any weather packets the latest 10 day(s).
| Time | Temp. | Humidity | Pressure | Rain* | Wind** | Luminosity | Snow |
|---|---|---|---|---|---|---|---|
| 1777779801 | 23.33° C | 63% | 1008.9 hPa | 0 mm | - | - | - |
| 1777778902 | 23.33° C | 66% | 1009.1 hPa | 0 mm | - | - | - |
| 1777778002 | 22.78° C | 68% | 1009.7 hPa | 0 mm | - | - | - |
| 1777777103 | 22.22° C | 68% | 1009.9 hPa | 0 mm | - | - | - |
| 1777776201 | 21.67° C | 71% | 1010.2 hPa | 0 mm | - | - | - |
| 1777775302 | 21.11° C | 71% | 1010.4 hPa | 0 mm | - | - | - |
| 1777774401 | 21.11° C | 72% | 1010.5 hPa | 0 mm | - | - | - |
| 1777773501 | 20.56° C | 71% | 1010.8 hPa | 0 mm | - | - | - |
| 1777772602 | 20.56° C | 70% | 1011.2 hPa | 0 mm | - | - | - |
| 1777771702 | 20° C | 72% | 1011.3 hPa | 0 mm | - | - | - |
| 1777770802 | 20° C | 72% | 1011.6 hPa | 0 mm | - | - | - |
| 1777769903 | 20° C | 72% | 1011.8 hPa | 0 mm | - | - | - |
| 1777769002 | 19.44° C | 71% | 1012.1 hPa | 0 mm | - | - | - |
| 1777768085 | 20° C | 71% | 1011.9 hPa | 0 mm | - | - | - |
| 1777767186 | 20° C | 70% | 1012 hPa | 0 mm | - | - | - |
| 1777766285 | 19.44° C | 68% | 1011.9 hPa | 0 mm | - | - | - |
| 1777765386 | 19.44° C | 69% | 1012 hPa | 0 mm | - | - | - |
| 1777764485 | 18.89° C | 69% | 1012 hPa | 0 mm | - | - | - |
| 1777763584 | 18.89° C | 69% | 1012.1 hPa | 0 mm | - | - | - |
| 1777762684 | 18.33° C | 68% | 1012.2 hPa | 0 mm | - | - | - |
| 1777761785 | 18.33° C | 70% | 1012.4 hPa | 0 mm | - | - | - |
| 1777760885 | 17.78° C | 70% | 1012.3 hPa | 0 mm | - | - | - |
| 1777759986 | 17.78° C | 70% | 1012.1 hPa | 0 mm | - | - | - |
| 1777759085 | 17.78° C | 69% | 1012.1 hPa | 0 mm | - | - | - |
| 1777758184 | 17.22° C | 70% | 1012.1 hPa | 0 mm | - | - | - |
* Rain latest hour (hover to see other rain measurements)
** Current wind speed in m/s (hover to see current wind gust speed)